Date String (YYYY-MM-DD hh:mm:ss) UTC,Instrument flags,absolute air pressure of the measurement (hPa),sample flow rate (lpm),inlet stack bypass flow (lpm),air temperature of the measurement (°C),ambient temperature measured by the external sensor (°C),aerosol sample conditioner tube jacket temperature (°C),OPC LED temperature (°C),internal box temperature (°C),relative humidity of the measurement (%),span deviation,mass concentration of particles derived from Lorenz-Mie calculation of OPC scattering (μg/m³),mass concentration of particles derived from Lorenz-Mie calculation of OPC scattering (μg/m³),mass concentration of particles derived from Lorenz-Mie calculation of OPC scattering (μg/m³)
DateTimeUTC,F1_M11,P_M11,Q1_M11,Q2_M11,T1_M11,T2_M11,T3_M11,T4_M11,T5_M11,U1_M11,ZSPAN_M11,X0_M11,X2_M11,X1_M11
2023-08-06 01:00:00,SystemResetWarning,0833.8,5.00,000.00,029.0,027.4,000.0,037.4,030.8,27.6,0000.0,0007.67,0003.73,0003.32
2023-08-06 01:01:00,SystemResetWarning,0833.8,5.00,000.00,029.1,027.6,000.0,037.4,030.8,26.0,0000.0,0007.50,0003.73,0003.33
2023-08-06 01:02:00,SystemResetWarning,0833.8,5.00,000.00,029.1,027.9,000.0,037.4,030.9,26.4,0000.0,0007.53,0003.73,0003.33
2023-08-06 01:03:00,SystemResetWarning,0833.8,4.98,000.00,029.2,027.5,000.0,037.4,030.9,27.8,0000.0,0008.16,0003.75,0003.32
2023-08-06 01:04:00,SystemResetWarning,0833.8,5.00,000.00,029.1,025.8,000.0,037.3,030.6,27.3,0000.0,0008.36,0003.80,0003.35
2023-08-06 01:05:00,SystemResetWarning,0833.8,5.00,000.00,029.0,024.8,000.0,037.2,030.4,24.5,0000.0,0008.36,0003.81,0003.37
2023-08-06 01:06:00,SystemResetWarning,0833.9,5.00,000.00,029.0,024.8,000.0,037.2,030.2,23.9,0000.0,0008.36,0003.82,0003.39
2023-08-06 01:07:00,SystemResetWarning,0834.0,5.02,000.00,028.9,025.2,000.0,037.2,030.1,23.4,0000.0,0008.27,0003.78,0003.39
2023-08-06 01:08:00,SystemResetWarning,0834.0,5.00,000.00,028.8,025.7,000.0,037.2,030.3,23.4,0000.0,0008.06,0003.76,0003.39
2023-08-06 01:09:00,SystemResetWarning,0834.1,5.00,000.00,028.9,026.1,000.0,037.3,030.4,26.8,0000.0,0008.00,0003.74,0003.38
2023-08-06 01:10:00,SystemResetWarning,0834.2,4.99,000.00,028.9,026.6,000.0,037.3,030.5,28.0,0000.0,0007.98,0003.73,0003.37
2023-08-06 01:11:00,SystemResetWarning,0834.3,5.00,000.00,028.9,026.9,000.0,037.3,030.6,28.4,0000.0,0007.59,0003.75,0003.36
2023-08-06 01:12:00,SystemResetWarning,0834.5,5.01,000.00,029.0,027.3,000.0,037.3,030.7,28.3,0000.0,0007.74,0003.78,0003.33
2023-08-06 01:13:00,SystemResetWarning,0834.3,5.00,000.00,029.0,027.5,000.0,037.4,030.8,27.9,0000.0,0007.36,0003.75,0003.32
2023-08-06 01:14:00,SystemResetWarning,0834.3,5.00,000.00,029.1,027.8,000.0,037.4,030.9,28.3,0000.0,0006.51,0003.75,0003.30
2023-08-06 01:15:00,SystemResetWarning,0834.4,4.99,000.00,029.1,028.0,000.0,037.4,031.0,29.2,0000.0,0006.83,0003.72,0003.27
2023-08-06 01:16:00,SystemResetWarning,0834.4,4.99,000.00,029.2,027.3,000.0,037.4,030.9,29.8,0000.0,0007.22,0003.68,0003.24
2023-08-06 01:17:00,SystemResetWarning,0834.3,5.00,000.00,029.1,025.5,000.0,037.3,030.6,30.5,0000.0,0007.57,0003.64,0003.20
2023-08-06 01:18:00,SystemResetWarning,0834.3,5.01,000.00,029.0,024.8,000.0,037.2,030.4,30.8,0000.0,0007.82,0003.63,0003.17
2023-08-06 01:19:00,SystemResetWarning,0834.5,5.01,000.00,029.0,024.9,000.0,037.2,030.2,31.5,0000.0,0009.01,0003.64,0003.16
2023-08-06 01:20:00,SystemResetWarning,0834.3,4.99,000.00,028.9,025.3,000.0,037.2,030.2,30.4,0000.0,0009.48,0003.66,0003.18
2023-08-06 01:21:00,SystemResetWarning,0834.1,4.99,000.00,028.9,025.8,000.0,037.3,030.4,29.7,0000.0,0009.76,0003.66,0003.19
2023-08-06 01:22:00,SystemResetWarning,0834.0,5.01,000.00,028.9,026.3,000.0,037.3,030.5,28.2,0000.0,0009.67,0003.62,0003.20
2023-08-06 01:23:00,SystemResetWarning,0834.0,5.00,000.00,028.9,026.7,000.0,037.3,030.6,28.2,0000.0,0009.51,0003.58,0003.21
2023-08-06 01:24:00,SystemResetWarning,0834.1,5.00,000.00,029.0,027.0,000.0,037.4,030.7,28.4,0000.0,0009.84,0003.60,0003.21
2023-08-06 01:25:00,SystemResetWarning,0834.1,5.00,000.00,029.0,027.4,000.0,037.4,030.8,31.8,0000.0,0010.60,0003.60,0003.23
2023-08-06 01:26:00,SystemResetWarning,0834.4,5.00,000.00,029.1,027.6,000.0,037.4,030.8,33.0,0000.0,0010.08,0003.57,0003.24
2023-08-06 01:27:00,SystemResetWarning,0834.3,5.00,000.00,029.1,027.9,000.0,037.4,030.9,33.3,0000.0,0009.80,0003.55,0003.22
2023-08-06 01:28:00,SystemResetWarning,0834.3,5.00,000.00,029.2,028.0,000.0,037.5,031.0,32.3,0000.0,0009.47,0003.52,0003.20
2023-08-06 01:29:00,SystemResetWarning,0834.4,4.98,000.00,029.2,027.0,000.0,037.4,030.8,31.5,0000.0,0009.15,0003.47,0003.17
2023-08-06 01:30:00,SystemResetWarning,0834.4,5.02,000.00,029.1,025.8,000.0,037.3,030.6,30.5,0000.0,0008.06,0003.44,0003.12
2023-08-06 01:31:00,SystemResetWarning,0834.3,5.00,000.00,029.1,025.6,000.0,037.3,030.4,29.7,0000.0,0007.57,0003.41,0003.11
2023-08-06 01:32:00,SystemResetWarning,0834.2,5.00,000.00,029.0,025.9,000.0,037.3,030.4,29.1,0000.0,0007.28,0003.40,0003.08
2023-08-06 01:33:00,SystemResetWarning,0834.2,5.00,000.00,029.0,026.3,000.0,037.4,030.5,30.2,0000.0,0007.38,0003.40,0003.05
2023-08-06 01:34:00,SystemResetWarning,0834.4,5.00,000.00,029.0,026.7,000.0,037.4,030.6,30.4,0000.0,0007.86,0003.38,0003.04
2023-08-06 01:35:00,SystemResetWarning,0834.8,5.00,000.00,029.1,027.1,000.0,037.4,030.7,30.4,0000.0,0007.80,0003.37,0003.05
2023-08-06 01:36:00,SystemResetWarning,0834.5,5.00,000.00,029.1,027.4,000.0,037.5,030.8,30.3,0000.0,0006.77,0003.37,0003.03
2023-08-06 01:37:00,SystemResetWarning,0834.3,5.00,000.00,029.1,027.7,000.0,037.5,030.9,30.0,0000.0,0006.91,0003.39,0003.04
2023-08-06 01:38:00,SystemResetWarning,0834.3,5.00,000.00,029.2,027.9,000.0,037.5,031.0,30.0,0000.0,0007.26,0003.46,0003.10
2023-08-06 01:39:00,SystemResetWarning,0834.3,4.99,000.00,029.2,027.1,000.0,037.5,030.9,29.5,0000.0,0007.34,0003.52,0003.17
2023-08-06 01:40:00,SystemResetWarning,0834.4,5.00,000.00,029.2,025.3,000.0,037.4,030.5,28.7,0000.0,0007.72,0003.63,0003.26
2023-08-06 01:41:00,SystemResetWarning,0834.3,5.01,000.00,029.1,024.7,000.0,037.3,030.4,28.2,0000.0,0008.12,0003.75,0003.36
2023-08-06 01:42:00,SystemResetWarning,0834.3,5.00,000.00,029.0,024.9,000.0,037.3,030.2,28.1,0000.0,0008.84,0003.85,0003.43
2023-08-06 01:43:00,SystemResetWarning,0834.3,5.00,000.00,028.9,025.2,000.0,037.3,030.2,27.6,0000.0,0009.05,0003.92,0003.48
2023-08-06 01:44:00,SystemResetWarning,0834.4,5.00,000.00,028.9,025.7,000.0,037.3,030.3,27.5,0000.0,0008.98,0003.97,0003.52
2023-08-06 01:45:00,SystemResetWarning,0834.4,5.00,000.00,028.9,026.2,000.0,037.4,030.5,27.5,0000.0,0008.95,0004.05,0003.58
2023-08-06 01:46:00,SystemResetWarning,0834.5,5.00,000.00,028.9,026.6,000.0,037.4,030.6,27.4,0000.0,0008.52,0004.11,0003.63
2023-08-06 01:47:00,SystemResetWarning,0834.6,5.00,000.00,029.0,027.0,000.0,037.4,030.7,27.5,0000.0,0008.59,0004.19,0003.71
2023-08-06 01:48:00,SystemResetWarning,0834.8,4.99,000.00,029.0,027.3,000.0,037.4,030.8,27.7,0000.0,0008.77,0004.30,0003.80
2023-08-06 01:49:00,SystemResetWarning,0835.1,5.00,000.00,029.1,027.6,000.0,037.4,030.8,27.9,0000.0,0008.92,0004.40,0003.89
2023-08-06 01:50:00,SystemResetWarning,0834.7,5.00,000.00,029.1,027.8,000.0,037.5,030.9,27.9,0000.0,0009.04,0004.49,0003.97
2023-08-06 01:51:00,SystemResetWarning,0835.2,5.00,000.00,029.2,028.0,000.0,037.5,031.0,27.9,0000.0,0008.97,0004.53,0004.02
2023-08-06 01:52:00,SystemResetWarning,0834.7,4.99,000.00,029.2,028.1,000.0,037.5,031.0,27.7,0000.0,0008.83,0004.56,0004.06
2023-08-06 01:53:00,SystemResetWarning,0834.9,4.98,000.00,029.2,026.9,000.0,037.4,030.8,27.8,0000.0,0008.25,0004.58,0004.09
2023-08-06 01:54:00,SystemResetWarning,0834.8,5.01,000.00,029.2,025.7,000.0,037.4,030.6,27.8,0000.0,0008.12,0004.60,0004.11
2023-08-06 01:55:00,SystemResetWarning,0834.7,5.01,000.00,029.1,025.6,000.0,037.3,030.5,27.9,0000.0,0008.34,0004.65,0004.15
2023-08-06 01:56:00,SystemResetWarning,0834.9,5.00,000.00,029.0,025.9,000.0,037.4,030.4,27.5,0000.0,0008.47,0004.70,0004.20
2023-08-06 01:57:00,SystemResetWarning,0835.2,5.00,000.00,029.0,026.2,000.0,037.4,030.5,27.1,0000.0,0008.51,0004.75,0004.26
2023-08-06 01:58:00,SystemResetWarning,0834.9,5.00,000.00,029.0,026.6,000.0,037.5,030.6,27.4,0000.0,0008.53,0004.78,0004.27
2023-08-06 01:59:00,SystemResetWarning,0835.0,4.98,000.00,029.1,027.0,000.0,037.5,030.7,27.3,0000.0,0008.72,0004.76,0004.25
